Time,TemperatureF,DewpointF,PressureIn,WindDirection,WindDirectionDegrees,WindSpeedMPH,WindSpeedGustMPH,Humidity,HourlyPrecipIn,Conditions,Clouds,dailyrainin,SoftwareType,DateUTC
2014-03-20 00:00:00,39.0,19.0,30.02,NE,45,0.0,-999.0,44,-99.99,,,0.00,Acu-Link.com,2014-03-20 07:00:00,
2014-03-20 00:15:00,39.0,18.4,30.01,NE,45,0.0,-999.0,43,-99.99,,,0.00,Acu-Link.com,2014-03-20 07:15:00,
2014-03-20 00:30:00,38.7,18.2,30.02,NE,45,0.0,-999.0,43,-99.99,,,0.00,Acu-Link.com,2014-03-20 07:30:00,
2014-03-20 00:45:00,39.0,19.0,30.02,NE,45,0.0,-999.0,44,-99.99,,,0.00,Acu-Link.com,2014-03-20 07:45:00,
2014-03-20 01:01:00,38.3,17.2,30.02,NE,45,0.0,-999.0,42,-99.99,,,0.00,Acu-Link.com,2014-03-20 08:01:00,
2014-03-20 01:16:00,38.1,18.1,30.02,NE,45,0.0,-999.0,44,-99.99,,,0.00,Acu-Link.com,2014-03-20 08:16:00,
2014-03-20 01:31:00,38.1,17.1,30.02,NE,45,0.0,-999.0,42,-99.99,,,0.00,Acu-Link.com,2014-03-20 08:31:00,
2014-03-20 01:46:00,39.2,16.3,30.02,NE,45,0.0,-999.0,39,-99.99,,,0.00,Acu-Link.com,2014-03-20 08:46:00,
2014-03-20 02:02:00,38.7,18.2,30.01,NE,45,0.0,-999.0,43,-99.99,,,0.00,Acu-Link.com,2014-03-20 09:02:00,
2014-03-20 02:17:00,39.0,17.9,30.01,NE,45,0.0,-999.0,42,-99.99,,,0.00,Acu-Link.com,2014-03-20 09:17:00,
2014-03-20 02:32:00,38.8,14.2,30.00,NE,45,0.0,-999.0,36,-99.99,,,0.00,Acu-Link.com,2014-03-20 09:32:00,
2014-03-20 02:47:00,38.8,13.5,29.99,NE,45,0.0,-999.0,35,-99.99,,,0.00,Acu-Link.com,2014-03-20 09:47:00,
2014-03-20 03:03:00,39.0,13.0,29.99,NE,45,0.0,-999.0,34,-99.99,,,0.00,Acu-Link.com,2014-03-20 10:03:00,
2014-03-20 03:18:00,38.8,12.9,29.99,NE,45,0.0,-999.0,34,-99.99,,,0.00,Acu-Link.com,2014-03-20 10:18:00,
2014-03-20 03:33:00,39.4,13.4,29.98,NE,45,0.0,-999.0,34,-99.99,,,0.00,Acu-Link.com,2014-03-20 10:33:00,
2014-03-20 03:48:00,38.8,12.9,29.96,NE,45,0.0,-999.0,34,-99.99,,,0.00,Acu-Link.com,2014-03-20 10:48:00,
2014-03-20 04:03:00,39.7,13.0,29.96,NE,45,0.0,-999.0,33,-99.99,,,0.00,Acu-Link.com,2014-03-20 11:03:00,
2014-03-20 04:19:00,40.1,13.3,29.96,NE,45,0.0,-999.0,33,-99.99,,,0.00,Acu-Link.com,2014-03-20 11:19:00,
2014-03-20 04:34:00,38.8,13.5,29.96,NE,45,0.0,-999.0,35,-99.99,,,0.00,Acu-Link.com,2014-03-20 11:34:00,
2014-03-20 04:49:00,39.0,12.4,29.96,NE,45,0.0,-999.0,33,-99.99,,,0.00,Acu-Link.com,2014-03-20 11:49:00,
2014-03-20 05:04:00,38.8,12.2,29.95,NE,45,0.0,-999.0,33,-99.99,,,0.00,Acu-Link.com,2014-03-20 12:04:00,
2014-03-20 05:19:00,38.3,11.7,29.96,NE,45,0.0,-999.0,33,-99.99,,,0.00,Acu-Link.com,2014-03-20 12:19:00,
2014-03-20 05:35:00,38.1,10.9,29.96,NE,45,0.0,-999.0,32,-99.99,,,0.00,Acu-Link.com,2014-03-20 12:35:00,
2014-03-20 05:50:00,38.3,11.1,29.96,NE,45,0.0,-999.0,32,-99.99,,,0.00,Acu-Link.com,2014-03-20 12:50:00,
2014-03-20 06:05:00,39.0,11.7,29.96,NE,45,0.0,-999.0,32,-99.99,,,0.00,Acu-Link.com,2014-03-20 13:05:00,
2014-03-20 06:20:00,38.7,11.4,29.97,NE,45,0.0,-999.0,32,-99.99,,,0.00,Acu-Link.com,2014-03-20 13:20:00,
2014-03-20 06:35:00,39.9,11.0,29.97,NE,45,0.0,-999.0,30,-99.99,,,0.00,Acu-Link.com,2014-03-20 13:35:00,
2014-03-20 06:50:00,39.4,11.3,29.97,NE,45,0.0,-999.0,31,-99.99,,,0.00,Acu-Link.com,2014-03-20 13:50:00,
2014-03-20 07:05:00,39.4,11.3,29.97,NE,45,0.0,-999.0,31,-99.99,,,0.00,Acu-Link.com,2014-03-20 14:05:00,
2014-03-20 07:21:00,40.1,11.9,29.97,NE,45,0.0,-999.0,31,-99.99,,,0.00,Acu-Link.com,2014-03-20 14:21:00,
2014-03-20 07:36:00,39.7,13.7,29.98,NE,45,0.0,-999.0,34,-99.99,,,0.00,Acu-Link.com,2014-03-20 14:36:00,
2014-03-20 07:51:00,39.7,15.0,29.97,NE,45,0.0,-999.0,36,-99.99,,,0.00,Acu-Link.com,2014-03-20 14:51:00,
2014-03-20 08:06:00,40.3,18.5,29.97,NE,45,0.0,-999.0,41,-99.99,,,0.00,Acu-Link.com,2014-03-20 15:06:00,
2014-03-20 08:21:00,40.6,21.5,29.97,NE,45,0.0,-999.0,46,-99.99,,,0.00,Acu-Link.com,2014-03-20 15:21:00,
2014-03-20 08:37:00,45.3,24.7,29.97,NE,45,0.0,-999.0,44,-99.99,,,0.00,Acu-Link.com,2014-03-20 15:37:00,
2014-03-20 08:52:00,47.1,27.4,29.97,NE,45,0.0,-999.0,46,-99.99,,,0.00,Acu-Link.com,2014-03-20 15:52:00,
2014-03-20 09:07:00,48.7,28.3,29.98,NE,45,0.0,-999.0,45,-99.99,,,0.00,Acu-Link.com,2014-03-20 16:07:00,
2014-03-20 09:22:00,50.7,28.5,29.98,NE,45,0.0,-999.0,42,-99.99,,,0.00,Acu-Link.com,2014-03-20 16:22:00,
2014-03-20 09:38:00,53.2,17.4,29.96,NE,45,0.0,-999.0,24,-99.99,,,0.00,Acu-Link.com,2014-03-20 16:38:00,
2014-03-20 09:53:00,54.1,10.3,29.97,NE,45,0.0,-999.0,17,-99.99,,,0.00,Acu-Link.com,2014-03-20 16:53:00,
2014-03-20 10:08:00,55.0,16.9,29.98,NE,45,0.0,-999.0,22,-99.99,,,0.00,Acu-Link.com,2014-03-20 17:08:00,
2014-03-20 10:23:00,55.4,19.2,29.97,NW,315,0.0,-999.0,24,-99.99,,,0.00,Acu-Link.com,2014-03-20 17:23:00,
2014-03-20 10:39:00,55.6,19.4,29.97,NNE,22,2.2,-999.0,24,-99.99,,,0.00,Acu-Link.com,2014-03-20 17:39:00,
2014-03-20 10:54:00,56.5,19.2,29.97,NW,315,1.1,-999.0,23,-99.99,,,0.00,Acu-Link.com,2014-03-20 17:54:00,
2014-03-20 11:09:00,57.6,20.1,29.96,NNW,337,1.7,-999.0,23,-99.99,,,0.00,Acu-Link.com,2014-03-20 18:09:00,
2014-03-20 11:24:00,58.1,20.5,29.96,NNE,22,2.7,-999.0,23,-99.99,,,0.00,Acu-Link.com,2014-03-20 18:24:00,
2014-03-20 11:40:00,59.5,24.6,29.97,East,90,1.7,-999.0,26,-99.99,,,0.00,Acu-Link.com,2014-03-20 18:40:00,
2014-03-20 11:55:00,60.4,23.5,29.96,South,180,2.7,-999.0,24,-99.99,,,0.00,Acu-Link.com,2014-03-20 18:55:00,
2014-03-20 12:10:00,59.7,21.9,29.96,NNW,337,2.2,-999.0,23,-99.99,,,0.00,Acu-Link.com,2014-03-20 19:10:00,
2014-03-20 12:25:00,58.3,20.7,29.95,NE,45,2.7,-999.0,23,-99.99,,,0.00,Acu-Link.com,2014-03-20 19:25:00,
2014-03-20 12:41:00,59.7,22.9,29.95,NE,45,2.2,-999.0,24,-99.99,,,0.00,Acu-Link.com,2014-03-20 19:41:00,
2014-03-20 12:56:00,60.1,22.2,29.93,ENE,67,0.0,-999.0,23,-99.99,,,0.00,Acu-Link.com,2014-03-20 19:56:00,
2014-03-20 13:11:00,58.6,23.8,29.93,WNW,292,3.2,-999.0,26,-99.99,,,0.00,Acu-Link.com,2014-03-20 20:11:00,
2014-03-20 13:26:00,58.5,24.6,29.93,NNW,337,3.2,-999.0,27,-99.99,,,0.00,Acu-Link.com,2014-03-20 20:26:00,
2014-03-20 13:41:00,59.9,25.8,29.93,NNE,22,1.1,-999.0,27,-99.99,,,0.00,Acu-Link.com,2014-03-20 20:41:00,
2014-03-20 13:56:00,59.2,24.3,29.91,East,90,2.7,-999.0,26,-99.99,,,0.00,Acu-Link.com,2014-03-20 20:56:00,
2014-03-20 14:11:00,58.6,25.6,29.92,NW,315,3.2,-999.0,28,-99.99,,,0.00,Acu-Link.com,2014-03-20 21:11:00,
2014-03-20 14:26:00,59.2,25.2,29.91,NNW,337,2.7,-999.0,27,-99.99,,,0.00,Acu-Link.com,2014-03-20 21:26:00,
2014-03-20 14:42:00,58.8,24.9,29.91,NW,315,2.2,-999.0,27,-99.99,,,0.00,Acu-Link.com,2014-03-20 21:42:00,
2014-03-20 14:57:00,58.3,24.5,29.90,WNW,292,1.7,-999.0,27,-99.99,,,0.00,Acu-Link.com,2014-03-20 21:57:00,
2014-03-20 15:12:00,58.6,23.8,29.89,NW,315,3.7,-999.0,26,-99.99,,,0.00,Acu-Link.com,2014-03-20 22:12:00,
2014-03-20 15:28:00,57.6,25.6,29.89,NE,45,2.2,-999.0,29,-99.99,,,0.00,Acu-Link.com,2014-03-20 22:28:00,
2014-03-20 15:43:00,57.2,26.1,29.90,NE,45,2.2,-999.0,30,-99.99,,,0.00,Acu-Link.com,2014-03-20 22:43:00,
2014-03-20 15:58:00,56.5,24.6,29.89,NNE,22,5.3,-999.0,29,-99.99,,,0.00,Acu-Link.com,2014-03-20 22:58:00,
2014-03-20 16:13:00,56.3,24.5,29.89,East,90,2.7,-999.0,29,-99.99,,,0.00,Acu-Link.com,2014-03-20 23:13:00,
2014-03-20 16:28:00,56.5,25.4,29.88,NNE,22,2.7,-999.0,30,-99.99,,,0.00,Acu-Link.com,2014-03-20 23:28:00,
2014-03-20 16:43:00,55.9,24.1,29.88,NE,45,1.7,-999.0,29,-99.99,,,0.00,Acu-Link.com,2014-03-20 23:43:00,
2014-03-20 17:00:00,55.2,24.3,29.87,NE,45,2.7,-999.0,30,-99.99,,,0.00,Acu-Link.com,2014-03-21 00:00:00,
2014-03-20 17:16:00,55.2,25.9,29.87,NE,45,0.0,-999.0,32,-99.99,,,0.00,Acu-Link.com,2014-03-21 00:16:00,
2014-03-20 17:31:00,54.9,25.6,29.86,East,90,0.0,-999.0,32,-99.99,,,0.00,Acu-Link.com,2014-03-21 00:31:00,
2014-03-20 17:46:00,54.0,26.3,29.86,East,90,0.0,-999.0,34,-99.99,,,0.00,Acu-Link.com,2014-03-21 00:46:00,
2014-03-20 18:01:00,53.8,27.5,29.87,NE,45,0.0,-999.0,36,-99.99,,,0.00,Acu-Link.com,2014-03-21 01:01:00,
2014-03-20 18:17:00,52.3,28.1,29.87,NE,45,0.0,-999.0,39,-99.99,,,0.00,Acu-Link.com,2014-03-21 01:17:00,
2014-03-20 18:32:00,51.6,29.3,29.87,East,90,0.0,-999.0,42,-99.99,,,0.00,Acu-Link.com,2014-03-21 01:32:00,
2014-03-20 18:47:00,51.1,29.4,29.88,East,90,0.0,-999.0,43,-99.99,,,0.00,Acu-Link.com,2014-03-21 01:47:00,
2014-03-20 19:02:00,48.9,28.5,29.86,East,90,0.0,-999.0,45,-99.99,,,0.00,Acu-Link.com,2014-03-21 02:02:00,
2014-03-20 19:17:00,47.5,27.8,29.87,East,90,0.0,-999.0,46,-99.99,,,0.00,Acu-Link.com,2014-03-21 02:17:00,
2014-03-20 19:33:00,46.0,27.4,29.87,East,90,0.0,-999.0,48,-99.99,,,0.00,Acu-Link.com,2014-03-21 02:33:00,
2014-03-20 19:48:00,45.0,27.5,29.87,East,90,0.0,-999.0,50,-99.99,,,0.00,Acu-Link.com,2014-03-21 02:48:00,
2014-03-20 20:03:00,43.9,27.4,29.87,East,90,0.0,-999.0,52,-99.99,,,0.00,Acu-Link.com,2014-03-21 03:03:00,
2014-03-20 20:19:00,43.2,26.8,29.88,East,90,0.0,-999.0,52,-99.99,,,0.00,Acu-Link.com,2014-03-21 03:19:00,
2014-03-20 20:34:00,44.1,25.7,29.88,East,90,0.0,-999.0,48,-99.99,,,0.00,Acu-Link.com,2014-03-21 03:34:00,
2014-03-20 20:49:00,43.7,24.8,29.88,East,90,0.0,-999.0,47,-99.99,,,0.00,Acu-Link.com,2014-03-21 03:49:00,
2014-03-20 21:04:00,42.3,24.0,29.88,East,90,0.0,-999.0,48,-99.99,,,0.00,Acu-Link.com,2014-03-21 04:04:00,
2014-03-20 21:19:00,41.4,23.7,29.88,East,90,0.0,-999.0,49,-99.99,,,0.00,Acu-Link.com,2014-03-21 04:19:00,
2014-03-20 21:34:00,40.5,23.3,29.89,East,90,0.0,-999.0,50,-99.99,,,0.00,Acu-Link.com,2014-03-21 04:34:00,
2014-03-20 21:50:00,40.3,23.2,29.89,East,90,0.0,-999.0,50,-99.99,,,0.00,Acu-Link.com,2014-03-21 04:50:00,
2014-03-20 22:05:00,39.6,23.4,29.89,East,90,0.0,-999.0,52,-99.99,,,0.00,Acu-Link.com,2014-03-21 05:05:00,
2014-03-20 22:21:00,39.2,23.5,29.88,East,90,0.0,-999.0,53,-99.99,,,0.00,Acu-Link.com,2014-03-21 05:21:00,
2014-03-20 22:36:00,40.5,22.9,29.89,East,90,0.0,-999.0,49,-99.99,,,0.00,Acu-Link.com,2014-03-21 05:36:00,
2014-03-20 22:51:00,39.4,22.8,29.89,East,90,0.0,-999.0,51,-99.99,,,0.00,Acu-Link.com,2014-03-21 05:51:00,
2014-03-20 23:06:00,38.8,22.7,29.89,East,90,0.0,-999.0,52,-99.99,,,0.00,Acu-Link.com,2014-03-21 06:06:00,
2014-03-20 23:22:00,39.0,22.4,29.88,East,90,0.0,-999.0,51,-99.99,,,0.00,Acu-Link.com,2014-03-21 06:22:00,
2014-03-20 23:37:00,40.8,22.6,29.89,East,90,0.0,-999.0,48,-99.99,,,0.00,Acu-Link.com,2014-03-21 06:37:00,
2014-03-20 23:52:00,39.2,22.6,29.89,East,90,0.0,-999.0,51,-99.99,,,0.00,Acu-Link.com,2014-03-21 06:52:00,